Cut Bank, MT

9:42 AM MST on November 18, 2019 (GMT -0700)
Cut Bank Municipal

Weather History for KCTB - September, 2019

Change the Weather History Date:

Sunday, September 22, 2019

  Actual Average Record
Temperature  
Mean Temperature 62 °F 52 °F  
Max Temperature 73 °F 65 °F 87 °F (1938)
Min Temperature 49 °F 38 °F 16 °F (1934)
Degree Days  
Heating Degree Days 4 14  
Month to date heating degree days 163 224  
Since 1 July heating degree days 336 418  
Cooling Degree Days 0 0  
Month to date cooling degree days 2 6  
Year to date cooling degree days 106 159  
Growing Degree Days 12 (Base 50)    
Moisture  
Dew Point 40 °F    
Average Humidity 50    
Maximum Humidity 66    
Minimum Humidity 29    
Precipitation  
Precipitation 0.00 in 0.04 in 1.28 in (1945)
Month to date precipitation 1.03 0.96  
Year to date precipitation 9.86 9.62  
Snow  
Snow - - - ()
Snow Depth 0.00 in    
Sea Level Pressure  
Sea Level Pressure 29.83 in    
Wind  
Wind Speed 13 mph ()    
Max Wind Speed 23 mph    
Max Gust Speed 27 mph    
Visibility 10.0 miles    
Events      
T = Trace of Precipitation, MM = Missing Value Source: Averaged Metar Reports

Daily Weather History Graph

Daily Weather History Graph

Search for Another Location

Airport or City:

Astronomy

Sep. 22, 2019 Rise Set
Actual Time 7:15 AM MDT 7:27 PM MDT
Civil Twilight 6:44 AM MDT 7:58 PM MDT
Nautical Twilight 6:07 AM MDT 8:35 PM MDT
Astronomical Twilight 5:29 AM MDT 9:13 PM MDT
Moon No Moon Rise 3:58 PM MDT (9/22)
Length of Visible Light 13h 14m
Length of Day
12h 11m
Last Quarter, 43% of the Moon is Illuminated
Sep 22
Last Quarter
Sep 28
New
Oct 5
First Quarter
Oct 13
Full
Oct 21
Last Quarter

Hourly Weather History & Observations

Time (MDT) Temp. Dew Point Humidity Pressure Visibility Wind Dir Wind Speed Gust Speed Precip Events Conditions
12:56 AM 50.0 °F 39.0 °F 66% 29.87 in 10.0 mi WSW 12.7 mph - N/A   Clear
1:56 AM 51.1 °F 39.0 °F 63% 29.86 in 10.0 mi WSW 16.1 mph - N/A   Clear
2:56 AM 50.0 °F 39.0 °F 66% 29.86 in 10.0 mi WSW 12.7 mph - N/A   Clear
3:56 AM 51.1 °F 39.0 °F 63% 29.84 in 10.0 mi West 16.1 mph - N/A   Clear
4:56 AM 50.0 °F 39.0 °F 66% 29.84 in 10.0 mi West 15.0 mph - N/A   Clear
5:56 AM 50.0 °F 39.0 °F 66% 29.85 in 10.0 mi West 13.8 mph - N/A   Clear
6:56 AM 50.0 °F 39.0 °F 66% 29.85 in 10.0 mi West 15.0 mph - N/A   Clear
7:56 AM 51.1 °F 39.0 °F 63% 29.86 in 10.0 mi West 13.8 mph - N/A   Clear
8:56 AM 57.0 °F 39.9 °F 53% 29.87 in 10.0 mi West 16.1 mph - N/A   Clear
9:56 AM 62.1 °F 39.0 °F 43% 29.86 in 10.0 mi WSW 18.4 mph - N/A   Clear
10:56 AM 66.0 °F 39.9 °F 38% 29.85 in 10.0 mi West 18.4 mph - N/A   Clear
11:56 AM 68.0 °F 39.9 °F 36% 29.84 in 10.0 mi WSW 19.6 mph 25.3 mph N/A   Clear
12:56 PM 71.1 °F 41.0 °F 34% 29.81 in 10.0 mi WSW 15.0 mph 21.9 mph N/A   Clear
1:56 PM 71.1 °F 39.0 °F 31% 29.79 in 10.0 mi West 18.4 mph 23.0 mph N/A   Clear
2:56 PM 73.0 °F 39.0 °F 29% 29.78 in 10.0 mi WSW 15.0 mph - N/A   Clear
4:56 PM 72.0 °F 39.9 °F 31% 29.78 in 10.0 mi WSW 19.6 mph 25.3 mph N/A   Clear
5:56 PM 66.9 °F 39.0 °F 36% 29.79 in 10.0 mi WSW 18.4 mph - N/A   Clear
6:56 PM 63.0 °F 39.0 °F 41% 29.80 in 10.0 mi WSW 12.7 mph - N/A   Clear
7:56 PM 59.0 °F 39.9 °F 49% 29.81 in 10.0 mi West 8.1 mph - N/A   Clear
8:56 PM 57.9 °F 41.0 °F 53% 29.81 in 10.0 mi West 9.2 mph - N/A   Clear
10:56 PM 59.0 °F 39.9 °F 49% 29.77 in 10.0 mi SW 3.5 mph - N/A   Clear
11:56 PM 52.0 °F 41.0 °F 66% 29.79 in 10.0 mi WSW 11.5 mph - N/A   Clear